Вернуться в каталог

COSMOS 249 DEB

АктивенLEO
NORAD 3695·DEBRIS·🇷🇺 Russia

Запущен Oct 20, 1968 с Baikonur Cosmodrome

Loading…

Ближайшие Пролёты (ближайшие 24 часа)

TLE

СвежийSource: Space-Track

Эпоха: Sep 14, 2026, 08:13 UTC

1 03695U 68091AL  26257.34243507  .00001529  00000-0  17742-2 0  9997
2 03695  62.2434  25.5397 0637383 256.8366  96.0802 13.07557789683850

Отслеживайте COSMOS 249 DEB в реальном времени с AllMySat

Download on the App Store